WESTFORD NEEDLES, 19030

Orbit data source: Space-Track

WESTFORD NEEDLES, 19030 is space debris in LEO originally from a launch on Thu, 09 May 1963 UTC launched from the Air Force Western Test Range (AFWTR). Debris objects in space refer to the collection of defunct objects orbiting the Earth. Examples of debris include non-operational satellites, rocket bodies, and fragments generated from explosions, collisions, or faulty payload assembly.

Loading next visibility...
Identifier
19030, 1963-014DY
Orbit
LEO
Country
Flag of USUS
Related business
Manufacturer
Unknown
Mission
Spacecraft
Bus & Motor
Unknown
Mass
Unknown
Launch date (UTC)
1963-05-09 (63 years ago)
Launch vehicle
Unknown
Launch site
Air Force Western Test Range (AFWTR)
Object type
Payload
Rocket body
Debris
Shape & HBR
Unknown shape, 1.1 m
Radar Cross Section
Medium (>0.1 m² and <1 m²)

Expand to show TLE details & history
Last TLE update: 9 hours ago

TLE from 9 hours ago
0 WESTFORD NEEDLES
1 19030U 63014DY  26125.27850523 -.00000325  00000-0 -15504+0 0  9991
2 19030  87.3653 235.2107 0022860 111.9137 248.4150  8.64539045385259
Epoch: 2026-05-05T06:41Z
TLE epoch observation values (Epoch: 2026-05-05T06:41:02.851Z)
Latitude
-0.00001°
Longitude
-88.20682°
Altitude
3,660.477 km
Speed
6.299 km/s
True Right ascension
15h 40m 50s
True Declination
0° 00' 00"
Sunlit
Object was in full shadow at epoch
Visualization orbit readout
Latitude
Unknown
Longitude
Unknown
Altitude
Unknown
Speed
Unknown
Apparent Right ascension
Unknown
Apparent Declination
Unknown
Sunlit
N/A
Visualization observer readout
Local Sidereal Time
23:56:40
Azimuth
Unknown
Elevation
Unknown
Doppler factor
Unknown
Orbital elements
Apogee altitude
3,670.555 km
Perigee altitude
3,624.717 km
Semi-major axis
10,025.773 km
Eccentricity
0.00229
Inclination
87.3653°
RAAN
235.2107°
Arg. of periapsis
111.9137°
True anomaly
248.17167°
Mean anomaly
248.415°
Eccentric anomaly
248.29331°
Mean motion
2.16205 °/min
Orbital period
166.51 mins
BSTAR
-0.15504
Loading maneuver chart data...
Computing Atmospheric mass density...

Documentation

Showing up to 5 results
|